Location: Centerville
(32.8776°N, 96.6203°W)
Time: 05:39:08
(UTC+00:00)

Cosmos 1125 Rocket - Pass Details

Date: 17 June 2021
Orbit: 757 x 780 km, 74.0° (Epoch: 29 July)

Event Time Altitude Azimuth Distance (km) Brightness Sun altitude
Rises 09:39:11 0° 346° (NNW) 3,240 7.2 -17.5°
Reaches altitude 10° 09:41:35 10° 348° (NNW) 2,314 6.4 -17.2°
Maximum altitude 09:46:49 71° 72° (ENE) 815 3.8 -16.4°
Drops below altitude 10° 09:52:04 10° 157° (SSE) 2,315 5.8 -15.5°
Sets 09:54:27 0° 159° (SSE) 3,241 6.5 -15.2°
